Waarnemingen

Advertentie
Mijn weer
Cap Cepet, Frankrijk (7661): temperatuur & dauwpunt: 10.07.2019 04:00:00 - 16.07.2019 04:00:00 (CEST)Cap Cepet, Frankrijk (7661): windsnelheid & windstoten: 10.07.2019 04:00:00 - 16.07.2019 04:00:00 (CEST)Cap Cepet, Frankrijk (7661): windrichting: 10.07.2019 04:00:00 - 16.07.2019 04:00:00 (CEST)Cap Cepet, Frankrijk (7661): luchtdruk: 10.07.2019 04:00:00 - 16.07.2019 04:00:00 (CEST)Cap Cepet, Frankrijk (7661): zicht: 10.07.2019 04:00:00 - 16.07.2019 04:00:00 (CEST)Cap Cepet, Frankrijk (7661): neerslag: 10.07.2019 04:00:00 - 16.07.2019 04:00:00 (CEST)
Datum & Tijd tt [°C] td [°C] ff [km/u] ff [kn] fx [km/u] fx [kn] dd ppp [hPa] vv [km] rr [mm]
16.07.2019 04:00:00 19,0 15,1 16 9 21 11 NW 1013,6 - 0,0
16.07.2019 03:00:00 18,9 15,8 19 10 24 13 NW 1013,7 - 0,0
16.07.2019 02:00:00 19,2 15,5 18 10 25 14 NW 1013,5 - 0,0
16.07.2019 01:00:00 19,5 15,6 21 11 26 14 NW 1013,1 - 0,0
16.07.2019 00:00:00 19,9 16,3 22 12 26 14 NW 1013,0 - 0,0
15.07.2019 23:00:00 20,3 15,7 11 6 14 7 NW 1013,1 - 0,0
15.07.2019 22:00:00 20,4 15,8 8 4 12 6 WZW 1012,3 - 0,0
15.07.2019 21:00:00 21,3 16,0 9 5 21 11 ZW 1011,2 - 0,0
15.07.2019 20:00:00 22,4 16,0 15 8 26 14 ZW 1010,5 25 0,0
15.07.2019 19:00:00 22,5 15,1 9 5 19 11 ZW 1010,0 - 0,0
15.07.2019 18:00:00 22,8 14,9 13 7 29 16 ZW 1009,7 - 0,0
15.07.2019 17:00:00 22,7 15,8 21 11 39 21 OZO 1009,2 - 0,0
15.07.2019 16:00:00 19,3 17,4 22 12 43 23 OZO 1008,8 - 1,0
15.07.2019 15:00:00 23,0 14,6 26 14 59 32 O 1007,5 - 0,0
15.07.2019 14:00:00 27,8 11,8 35 19 53 29 NW 1005,6 - 0,0
15.07.2019 13:00:00 26,8 11,3 32 17 49 26 NW 1005,4 - 0,0
15.07.2019 12:00:00 25,7 12,9 16 9 23 12 WZW 1005,6 - 0,0
15.07.2019 11:00:00 26,8 12,8 6 3 17 9 WNW 1005,6 - 0,0
15.07.2019 10:00:00 24,5 13,7 4 2 22 12 OZO 1005,9 - 0,0
15.07.2019 09:00:00 22,4 12,6 13 7 19 11 NW 1006,0 - 0,0
15.07.2019 08:00:00 21,5 13,1 13 7 20 11 NW 1005,9 10 0,0
15.07.2019 07:00:00 20,5 13,5 13 7 27 15 NW 1006,0 - 0,0
15.07.2019 06:00:00 20,0 16,0 6 3 17 9 WNW 1006,1 - 0,0
15.07.2019 05:00:00 20,1 18,2 7 4 12 6 O 1006,1 - 0,0
15.07.2019 04:00:00 20,2 18,5 9 5 14 8 N 1006,4 - 0,0
15.07.2019 03:00:00 20,9 19,0 12 6 16 8 O 1006,6 - 0,0
15.07.2019 02:00:00 21,8 19,2 3 2 12 7 ZZO 1007,2 - 0,0
15.07.2019 01:00:00 22,4 18,2 12 7 16 8 NW 1007,7 - 0,0
15.07.2019 00:00:00 22,5 18,1 16 8 26 14 NW 1008,1 - 0,0
14.07.2019 23:00:00 23,0 18,1 16 9 25 13 NW 1008,4 - 0,0
14.07.2019 22:00:00 23,6 19,1 3 2 6 4 O 1008,0 - 0,0
14.07.2019 21:00:00 24,8 19,2 0 0 8 5 N 1008,0 - 0,0
14.07.2019 20:00:00 24,8 19,0 5 3 14 8 ZW 1008,0 - 0,0
14.07.2019 19:00:00 26,1 19,0 4 2 11 6 O 1008,0 - 0,0
14.07.2019 18:00:00 27,1 19,4 5 3 27 15 WZW 1007,9 - 0,0
14.07.2019 17:00:00 27,6 19,4 14 8 50 27 WZW 1007,9 - 0,0
14.07.2019 16:00:00 27,4 21,0 35 19 56 31 O 1007,4 - 0,0
14.07.2019 15:00:00 27,7 21,5 36 19 61 33 O 1007,7 - 0,0
14.07.2019 14:00:00 28,3 20,6 34 18 53 29 O 1007,9 - 0,0
14.07.2019 13:00:00 27,6 20,2 29 16 50 27 O 1008,3 - 0,0
14.07.2019 12:00:00 30,0 19,4 23 12 41 22 O 1008,6 - 0,0
14.07.2019 11:00:00 28,8 20,8 15 8 27 14 O 1009,3 - 0,0
14.07.2019 10:00:00 28,2 16,1 15 8 21 12 O 1009,4 - 0,0
14.07.2019 09:00:00 25,3 12,2 11 6 17 9 ONO 1009,7 - 0,0
14.07.2019 08:00:00 23,9 11,2 10 5 18 10 O 1009,7 - 0,0
14.07.2019 07:00:00 22,9 11,3 3 2 11 6 O 1009,4 - 0,0
14.07.2019 06:00:00 22,3 10,1 4 2 11 6 NO 1009,3 - 0,0
14.07.2019 05:00:00 22,3 10,1 9 5 12 6 NNW 1009,4 - 0,0
14.07.2019 04:00:00 23,0 10,1 3 2 27 14 O 1009,4 - 0,0
14.07.2019 03:00:00 22,5 9,6 23 12 29 16 O 1009,5 - 0,0
14.07.2019 02:00:00 24,2 9,0 15 8 18 10 O 1009,9 - 0,0
14.07.2019 01:00:00 24,6 8,5 4 2 13 7 N 1010,2 - 0,0
14.07.2019 00:00:00 24,8 8,7 11 6 28 15 NNW 1010,2 - 0,0
13.07.2019 23:00:00 25,9 8,4 22 12 36 19 NNW 1010,3 - 0,0
13.07.2019 22:00:00 27,1 8,5 31 17 45 24 NNW 1009,7 - 0,0
13.07.2019 21:00:00 28,6 8,3 28 15 61 33 NNW 1008,8 - 0,0
13.07.2019 20:00:00 30,8 7,9 44 24 65 35 NNW 1007,7 25 0,0
13.07.2019 19:00:00 32,8 7,6 36 20 54 29 NNW 1007,7 - 0,0
13.07.2019 18:00:00 33,7 8,3 36 19 55 30 NNW 1007,8 - 0,0
13.07.2019 17:00:00 33,9 9,9 43 23 60 32 NW 1008,0 - 0,0
13.07.2019 16:00:00 34,3 9,5 38 20 53 29 NW 1008,2 - 0,0
13.07.2019 15:00:00 33,4 11,9 34 18 55 30 NW 1008,9 - 0,0
13.07.2019 14:00:00 31,8 12,6 34 18 63 34 NW 1009,1 - 0,0
13.07.2019 13:00:00 30,5 12,9 48 26 70 38 NW 1009,3 - 0,0
13.07.2019 12:00:00 29,4 12,3 53 29 76 41 NW 1009,5 - 0,0
13.07.2019 11:00:00 28,8 12,2 42 23 62 33 NW 1010,1 - 0,0
13.07.2019 10:00:00 27,6 12,0 40 21 56 31 NNW 1010,3 - 0,0
13.07.2019 09:00:00 26,4 11,7 42 23 59 32 NNW 1010,7 - 0,0
13.07.2019 08:00:00 25,3 11,5 41 22 54 29 NNW 1010,5 25 0,0
13.07.2019 07:00:00 23,7 12,7 31 17 40 22 NW 1010,6 - 0,0
13.07.2019 06:00:00 23,9 12,8 24 13 35 19 NW 1010,4 - 0,0
13.07.2019 05:00:00 24,7 13,3 27 15 36 19 NW 1010,3 - 0,0
13.07.2019 04:00:00 24,4 14,8 30 16 41 22 NW 1010,7 - 0,0
13.07.2019 03:00:00 24,7 16,1 31 17 42 23 NW 1011,1 - 0,0
13.07.2019 02:00:00 24,8 16,8 25 13 32 17 NW 1011,4 - 0,0
13.07.2019 01:00:00 23,3 19,0 22 12 34 18 NW 1011,8 - 0,0
13.07.2019 00:00:00 23,7 19,2 22 12 38 21 NW 1012,1 - 0,0
12.07.2019 23:00:00 23,8 18,9 29 16 60 32 NW 1011,8 - 0,0
12.07.2019 22:00:00 24,0 18,2 41 22 62 33 NW 1011,7 - 0,0
12.07.2019 21:00:00 25,3 17,0 48 26 68 37 NW 1011,2 - 0,0
12.07.2019 20:00:00 26,6 16,2 53 28 76 41 NW 1010,9 30 0,0
12.07.2019 19:00:00 27,9 14,5 55 30 85 46 NW 1010,3 - 0,0
12.07.2019 18:00:00 27,7 16,0 59 32 82 44 NW 1009,9 - 0,0
12.07.2019 17:00:00 29,1 15,6 56 31 81 44 NW 1009,7 - 0,0
12.07.2019 16:00:00 30,2 15,1 52 28 86 47 NW 1010,3 - 0,0
12.07.2019 15:00:00 29,5 14,5 58 31 85 46 NW 1010,7 - 0,0
12.07.2019 14:00:00 29,8 14,0 49 26 74 40 NW 1011,4 - 0,0
12.07.2019 13:00:00 29,8 13,5 46 25 68 37 NW 1011,7 - 0,0
12.07.2019 12:00:00 29,5 13,3 41 22 58 32 NW 1012,3 - 0,0
12.07.2019 11:00:00 29,3 13,5 35 19 48 26 NW 1012,4 30 0,0
12.07.2019 10:00:00 28,1 11,6 31 17 41 22 NW 1012,3 - 0,0
12.07.2019 09:00:00 26,2 13,0 19 11 38 21 NW 1012,8 - 0,0
12.07.2019 08:00:00 24,6 12,2 31 17 41 22 NW 1012,4 - 0,0
12.07.2019 07:00:00 23,4 12,7 28 15 39 21 NW 1011,8 - 0,0
12.07.2019 06:00:00 23,5 13,7 29 15 37 20 NW 1011,5 - 0,0
12.07.2019 05:00:00 24,1 13,6 27 14 34 19 NW 1011,3 - 0,0
12.07.2019 04:00:00 24,0 14,1 27 14 35 19 NW 1011,4 - 0,0
12.07.2019 03:00:00 23,2 16,0 25 13 38 20 NW 1011,5 - 0,0
12.07.2019 02:00:00 22,9 18,9 31 17 44 24 NW 1011,8 - 0,0
12.07.2019 01:00:00 23,6 17,1 30 16 44 24 NW 1012,1 - 0,0
12.07.2019 00:00:00 23,9 15,4 19 10 37 20 NW 1012,4 - 0,0
11.07.2019 23:00:00 24,0 16,0 31 17 49 27 NW 1012,3 - 0,0
11.07.2019 22:00:00 23,5 19,0 39 21 54 29 NW 1011,9 - 0,0
11.07.2019 21:00:00 23,9 19,0 37 20 57 31 NW 1011,4 - 0,0
11.07.2019 20:00:00 26,1 16,9 29 16 46 25 NW 1011,5 - 0,0
11.07.2019 19:00:00 27,5 13,1 30 16 43 23 W 1011,5 - 0,0
11.07.2019 18:00:00 29,1 12,5 25 14 33 18 NW 1011,8 - 0,0
11.07.2019 17:00:00 29,6 18,4 23 12 32 17 NW 1012,1 - 0,0
11.07.2019 16:00:00 29,4 20,3 19 10 28 15 WZW 1012,6 - 0,0
11.07.2019 15:00:00 29,1 20,8 16 9 24 13 WZW 1012,9 - 0,0
11.07.2019 14:00:00 27,7 22,2 17 9 27 15 WZW 1013,1 15 0,0
11.07.2019 13:00:00 29,5 21,7 21 12 30 16 ZW 1012,8 - 0,0
11.07.2019 12:00:00 28,4 21,7 20 11 30 16 ZZO 1013,1 - 0,0
11.07.2019 11:00:00 28,3 21,8 10 5 23 12 O 1013,1 15 0,0
11.07.2019 10:00:00 28,0 20,3 13 7 24 13 O 1013,0 - 0,0
11.07.2019 09:00:00 25,8 18,0 15 8 24 13 O 1013,0 - 0,0
11.07.2019 08:00:00 22,8 17,0 16 8 22 12 O 1013,0 22 0,0
11.07.2019 07:00:00 21,7 17,3 12 6 21 11 O 1012,7 - 0,0
11.07.2019 06:00:00 21,8 16,7 16 9 22 12 O 1012,3 - 0,0
11.07.2019 05:00:00 22,4 17,5 16 9 27 15 O 1011,9 15 0,0
11.07.2019 04:00:00 22,2 17,8 18 10 24 13 O 1012,1 - 0,0
11.07.2019 03:00:00 22,0 18,6 20 11 26 14 O 1012,2 - 0,0
11.07.2019 02:00:00 22,3 18,3 19 10 27 15 O 1012,3 - 0,0
11.07.2019 01:00:00 22,7 18,0 21 12 27 15 O 1012,4 - 0,0
11.07.2019 00:00:00 23,1 18,6 20 11 24 13 O 1012,4 - 0,0
10.07.2019 23:00:00 23,5 19,8 15 8 22 12 O 1012,6 - 0,0
10.07.2019 22:00:00 23,8 19,5 15 8 24 13 O 1012,0 - 0,0
10.07.2019 21:00:00 23,8 19,7 19 10 27 14 ZZW 1011,6 - 0,0
10.07.2019 20:00:00 27,7 14,3 13 7 18 10 O 1011,1 22 0,0
10.07.2019 19:00:00 30,6 13,8 8 4 19 10 Z 1010,5 - 0,0
10.07.2019 18:00:00 30,7 13,5 14 7 21 12 WZW 1010,5 - 0,0
10.07.2019 17:00:00 30,7 13,5 14 7 22 12 WZW 1010,5 - 0,0
10.07.2019 16:00:00 31,2 14,4 9 5 28 15 WZW 1010,5 - 0,0
10.07.2019 15:00:00 31,6 14,3 13 7 28 15 NW 1010,5 - 0,0
10.07.2019 14:00:00 29,9 14,8 9 5 17 9 ZW 1010,5 - 0,0
10.07.2019 13:00:00 29,3 15,4 8 5 17 9 WZW 1010,3 - 0,0
10.07.2019 12:00:00 28,6 16,2 5 3 14 7 ZO 1010,0 - 0,0
10.07.2019 11:00:00 28,4 16,0 9 5 19 11 WZW 1009,5 20 0,0
10.07.2019 10:00:00 27,5 17,1 9 5 18 10 WZW 1009,1 - 0,0
10.07.2019 09:00:00 26,5 17,0 4 2 13 7 ONO 1008,8 - 0,0
10.07.2019 08:00:00 23,5 16,8 7 4 13 7 NNW 1008,7 - 0,0
10.07.2019 07:00:00 22,2 16,0 11 6 18 10 NW 1008,6 - 0,0
10.07.2019 06:00:00 22,4 15,3 13 7 20 11 N 1008,5 - 0,0
10.07.2019 05:00:00 22,6 17,3 18 10 23 12 NW 1008,5 15 0,0
10.07.2019 04:00:00 22,7 16,7 13 7 27 15 NW 1008,9 - 0,0

tt = temperatuur
td = dauwpunt
ff = windsnelheid
fx = windstoten
dd = windrichting
ppp = luchtdruk
vv = zicht
rr = neerslag

Weerstations in de omgeving